• In Belgium
  • List of Countries
  • For 7 days
  • Water Temperature
  • Satellite Maps
  • Weather Map
  • Weather Widgets
  • user-avatar
    Login

    Hourly Weather Andenne

    Today, 14 November, Wednesday

    Time Temperature Precipitation Wind Pressure Humidity
    00:00 +7°C° 0 mm 2 mps 761 mmHg 95%
    01:00 +7°C° 0 mm 2 mps 761 mmHg 95%
    02:00 +7°C° 0 mm 2 mps 761 mmHg 95%
    03:00 +7°C° 0 mm 2 mps 761 mmHg 95%
    04:00 +7°C° 0 mm 2 mps 760 mmHg 95%
    05:00 +6°C° 0 mm 2 mps 760 mmHg 95%
    06:00 +5°C° 0 mm 2 mps 760 mmHg 94%
    07:00 +5°C° 0 mm 3 mps 760 mmHg 91%
    08:00 +7°C° 0 mm 3 mps 760 mmHg 87%
    09:00 +8°C° 0 mm 3 mps 760 mmHg 84%
    10:00 +9°C° 0 mm 3 mps 760 mmHg 79%
    11:00 +11°C° 0 mm 3 mps 760 mmHg 75%
    12:00 +11°C° 0 mm 3 mps 760 mmHg 71%
    13:00 +11°C° 0 mm 3 mps 759 mmHg 73%
    14:00 +12°C° 0 mm 2 mps 759 mmHg 75%
    15:00 +10°C° 0 mm 2 mps 759 mmHg 77%
    16:00 +9°C° 0 mm 2 mps 759 mmHg 80%
    17:00 +8°C° 0 mm 2 mps 758 mmHg 83%
    18:00 +7°C° 0 mm 3 mps 758 mmHg 86%
    19:00 +5°C° 0 mm 3 mps 758 mmHg 85%
    20:00 +6°C° 0 mm 2 mps 758 mmHg 84%
    21:00 +6°C° 0 mm 2 mps 758 mmHg 83%
    22:00 +6°C° 0 mm 2 mps 758 mmHg 82%
    23:00 +6°C° 0 mm 2 mps 758 mmHg 82%

    Tomorrow, 15 November, Thursday

    Time Temperature Precipitation Wind Pressure Humidity
    00:00 +6°C° 0 mm 2 mps 758 mmHg 82%
    01:00 +6°C° 0 mm 2 mps 758 mmHg 81%
    02:00 +6°C° 0 mm 2 mps 758 mmHg 81%
    03:00 +6°C° 0 mm 2 mps 758 mmHg 80%
    04:00 +6°C° 0 mm 2 mps 758 mmHg 80%
    05:00 +6°C° 0 mm 2 mps 758 mmHg 79%
    06:00 +6°C° 0 mm 2 mps 758 mmHg 78%
    07:00 +7°C° 0 mm 2 mps 758 mmHg 74%
    08:00 +8°C° 0 mm 2 mps 758 mmHg 71%
    09:00 +9°C° 0 mm 2 mps 758 mmHg 67%
    10:00 +12°C° 0 mm 2 mps 758 mmHg 64%
    11:00 +13°C° 0 mm 2 mps 757 mmHg 60%
    12:00 +15°C° 0 mm 2 mps 757 mmHg 57%
    13:00 +14°C° 0 mm 2 mps 757 mmHg 61%
    14:00 +13°C° 0 mm 2 mps 757 mmHg 65%
    15:00 +13°C° 0 mm 2 mps 757 mmHg 69%
    16:00 +10°C° 0 mm 2 mps 757 mmHg 73%
    17:00 +9°C° 0 mm 2 mps 757 mmHg 76%
    18:00 +7°C° 0 mm 2 mps 757 mmHg 79%
    19:00 +7°C° 0 mm 2 mps 757 mmHg 80%
    20:00 +6°C° 0 mm 2 mps 757 mmHg 81%
    21:00 +6°C° 0 mm 2 mps 757 mmHg 82%
    22:00 +6°C° 0 mm 2 mps 757 mmHg 83%
    23:00 +6°C° 0 mm 2 mps 758 mmHg 83%

    Day after tomorrow, 16 November, Friday

    Time Temperature Precipitation Wind Pressure Humidity
    00:00 +5°C° 0 mm 2 mps 758 mmHg 84%
    01:00 +5°C° 0 mm 2 mps 758 mmHg 83%
    02:00 +5°C° 0 mm 2 mps 758 mmHg 83%
    03:00 +6°C° 0 mm 1 mps 758 mmHg 83%
    04:00 +6°C° 0 mm 1 mps 758 mmHg 82%
    05:00 +6°C° 0 mm 1 mps 758 mmHg 81%
    06:00 +6°C° 0 mm 1 mps 758 mmHg 80%
    07:00 +6°C° 0 mm 2 mps 759 mmHg 76%
    08:00 +7°C° 0 mm 2 mps 759 mmHg 72%
    09:00 +8°C° 0 mm 2 mps 759 mmHg 68%
    10:00 +9°C° 0 mm 2 mps 759 mmHg 64%
    11:00 +12°C° 0 mm 2 mps 759 mmHg 60%
    12:00 +13°C° 0 mm 2 mps 759 mmHg 56%
    13:00 +13°C° 0 mm 2 mps 759 mmHg 58%
    14:00 +12°C° 0 mm 2 mps 758 mmHg 61%
    15:00 +12°C° 0 mm 2 mps 758 mmHg 63%
    16:00 +10°C° 0 mm 3 mps 759 mmHg 63%
    17:00 +8°C° 0 mm 3 mps 759 mmHg 63%
    18:00 +7°C° 0 mm 3 mps 759 mmHg 63%
    19:00 +7°C° 0 mm 3 mps 759 mmHg 63%
    20:00 +5°C° 0 mm 3 mps 759 mmHg 63%
    21:00 +5°C° 0 mm 3 mps 760 mmHg 63%
    22:00 +4°C° 0 mm 3 mps 760 mmHg 64%
    23:00 +4°C° 0 mm 3 mps 760 mmHg 65%

    17 November, Saturday

    Time Temperature Precipitation Wind Pressure Humidity
    00:00 +4°C° 0 mm 3 mps 760 mmHg 66%
    01:00 +3°C° 0 mm 3 mps 760 mmHg 69%
    02:00 +3°C° 0 mm 3 mps 759 mmHg 71%
    03:00 +3°C° 0 mm 3 mps 759 mmHg 74%
    04:00 +3°C° 0 mm 3 mps 759 mmHg 75%
    05:00 +2°C° 0 mm 3 mps 759 mmHg 76%
    06:00 +2°C° 0 mm 3 mps 759 mmHg 77%
    07:00 +3°C° 0 mm 4 mps 759 mmHg 73%
    08:00 +4°C° 0 mm 4 mps 759 mmHg 69%
    09:00 +5°C° 0 mm 5 mps 759 mmHg 66%
    10:00 +6°C° 0 mm 5 mps 759 mmHg 62%
    11:00 +7°C° 0 mm 5 mps 759 mmHg 58%
    12:00 +9°C° 0 mm 6 mps 759 mmHg 54%
    13:00 +8°C° 0 mm 6 mps 759 mmHg 55%
    14:00 +8°C° 0 mm 5 mps 758 mmHg 56%
    15:00 +8°C° 0 mm 5 mps 758 mmHg 57%
    16:00 +7°C° 0 mm 5 mps 758 mmHg 57%
    17:00 +6°C° 0 mm 5 mps 758 mmHg 57%
    18:00 +5°C° 0 mm 5 mps 758 mmHg 57%
    19:00 +5°C° 0 mm 5 mps 758 mmHg 58%
    20:00 +5°C° 0 mm 5 mps 758 mmHg 58%
    21:00 +3°C° 0 mm 5 mps 758 mmHg 59%
    22:00 +3°C° 0 mm 5 mps 758 mmHg 58%
    23:00 +3°C° 0 mm 4 mps 758 mmHg 56%

    18 November, Sunday

    Time Temperature Precipitation Wind Pressure Humidity
    00:00 +3°C° 0 mm 4 mps 758 mmHg 55%
    01:00 +1°C° 0 mm 4 mps 758 mmHg 54%
    02:00 +1°C° 0 mm 4 mps 757 mmHg 53%
    03:00 +1°C° 0 mm 4 mps 757 mmHg 52%
    04:00 +1°C° 0 mm 5 mps 757 mmHg 54%
    05:00 +1°C° 0 mm 5 mps 757 mmHg 55%
    06:00 0°C° 0 mm 5 mps 757 mmHg 56%
    07:00 +1°C° 0 mm 5 mps 757 mmHg 56%
    08:00 +2°C° 0 mm 6 mps 757 mmHg 55%
    09:00 +3°C° 0 mm 6 mps 757 mmHg 54%
    10:00 +4°C° 0 mm 6 mps 757 mmHg 52%
    11:00 +5°C° 0 mm 6 mps 756 mmHg 51%
    12:00 +7°C° 0 mm 6 mps 756 mmHg 49%
    13:00 +7°C° 0 mm 6 mps 756 mmHg 51%
    14:00 +6°C° 0 mm 5 mps 756 mmHg 54%
    15:00 +6°C° 0 mm 4 mps 756 mmHg 56%
    16:00 +5°C° 0 mm 4 mps 756 mmHg 58%
    17:00 +4°C° 0 mm 4 mps 756 mmHg 60%
    18:00 +3°C° 0 mm 4 mps 756 mmHg 62%
    19:00 +3°C° 0 mm 4 mps 756 mmHg 63%
    20:00 +3°C° 0 mm 4 mps 756 mmHg 65%
    21:00 +3°C° 0 mm 4 mps 756 mmHg 66%
    22:00 +1°C° 0 mm 4 mps 756 mmHg 67%
    23:00 +1°C° 0 mm 4 mps 756 mmHg 69%

    19 November, Monday

    Time Temperature Precipitation Wind Pressure Humidity
    00:00 +1°C° 0 mm 4 mps 756 mmHg 70%
    01:00 +1°C° 0 mm 4 mps 756 mmHg 70%
    02:00 0°C° 0 mm 4 mps 756 mmHg 69%
    03:00 0°C° 0 mm 4 mps 755 mmHg 69%
    04:00 0°C° 0 mm 4 mps 755 mmHg 67%
    05:00 0°C° 0 mm 4 mps 755 mmHg 65%
    06:00 0°C° 0 mm 4 mps 755 mmHg 63%
    07:00 +1°C° 0 mm 5 mps 755 mmHg 59%
    08:00 +2°C° 0 mm 5 mps 756 mmHg 56%
    09:00 +3°C° 0 mm 6 mps 756 mmHg 52%
    10:00 +4°C° 0 mm 6 mps 756 mmHg 52%
    11:00 +4°C° 0 mm 6 mps 755 mmHg 52%
    12:00 +5°C° 0 mm 6 mps 755 mmHg 51%
    13:00 +6°C° 0 mm 5 mps 755 mmHg 55%
    14:00 +6°C° 0 mm 5 mps 755 mmHg 59%
    15:00 +5°C° 0 mm 5 mps 755 mmHg 62%
    16:00 +3°C° 0 mm 5 mps 755 mmHg 65%
    17:00 +2°C° 0 mm 5 mps 755 mmHg 67%
    18:00 +1°C° 0 mm 5 mps 755 mmHg 69%
    19:00 +1°C° 0 mm 5 mps 755 mmHg 70%
    20:00 0°C° 0 mm 5 mps 755 mmHg 70%
    21:00 0°C° 0 mm 5 mps 756 mmHg 70%
    22:00 -1°C° 0 mm 5 mps 756 mmHg 71%
    23:00 -1°C° 0 mm 5 mps 756 mmHg 72%
    Show more